Find Starlink 30296

NORAD ID: 57671 Int'l Des: 2023-124 Owner: SPXS Country: US Constellation: starlink operational
LEOCIRCULAR

リアルタイム位置

3D地球を読み込み中...

Starlink 30296について

説明を読み込み中...

次回通過

Passes for default location (London). Set your location on the main map for personalized predictions.

高度履歴

Loading altitude history...

軌道要素

1 57671U 23124J 26125.77157270 .00000532 00000-0 30096-4 0 9992
2 57671 53.1609 301.8744 0001073 81.6477 278.4646 15.30196036152305
Epoch: May 5, 2026 • Age: 19 hours

現在のステータス

高度 476.0 km
速度 7.63 km/s
衛星直下点 26.78°N, 106.28°W
打ち上げ日 Aug 22, 2023
運用期間 2.7 years
タイプ internet

技術仕様

分類 Payload
質量 730.00 kg
乾燥質量 700.00 kg
総質量 730.00 kg
長さ 0.30 m
直径 4.10 m
スパン 29.00 m
形状 Box + pan
製造者 SPXS
バスタイプ Starlink V2M
フェーズステータス In Orbit
所有者/国 SPXS/US

Most Searched